User: anonymous
Location: NJAA Observatory
(40.6819°N, 74.8979°W)
Time: 07:51:55
(UTC-04:00)
Language:

Cosmos 2263 Rocket - Orbit

View from above orbital plane
View from above orbital plane
View from above satellite
View from above satellite

Ground track
Ground track

The orbit data is extracted from the following two-line orbital elements,

1 22803U 93059B   14212.75773520 -.00000131  00000-0 -41640-4 0  3302
2 22803 070.9913 304.8943 0017391 194.3428 165.7204 14.16669363 79364
Epoch (UTC): 31 July 2014 18:11:08
Eccentricity: 0.0017391
inclination: 70.9913°
perigee height: 824 km
apogee height: 849 km
right ascension of ascending node: 304.8943°
argument of perigee: 194.3428°
revolutions per day: 14.16669363
mean anomaly at epoch: 165.7204°
orbit number at epoch: 7936

The dashed part of the orbit path shows where the satellite is in the earth's shadow,  

DLR